Estación de La Piedad

Ultimos registro cada 15 minutos 79
Estación Fecha / Hora Temperatura Humedad Lluvia Velocidad Dirección Radiación Presion
79 La Piedad 07-05-2026 19:30 9,7 83 0 0,9 183 0 1027,8
78 La Piedad 07-05-2026 19:15 9,7 83 0 0,9 183 0 1027,8
77 La Piedad 07-05-2026 19:00 10 81 0 0,9 183 0 1027,6
76 La Piedad 07-05-2026 18:45 10,3 80 0 0,9 183 0 1027,2
75 La Piedad 07-05-2026 18:30 10,3 82 0 0,9 183 0 1027,1
74 La Piedad 07-05-2026 18:15 10,3 82 0 0,9 183 0 1027,1
73 La Piedad 07-05-2026 18:00 10,6 81 0 0 183 0 1027,2
72 La Piedad 07-05-2026 17:45 10,9 79 0 0,9 183 0 1027,1
71 La Piedad 07-05-2026 17:30 11,5 77 0 1,3 183 14 1027,3
70 La Piedad 07-05-2026 17:15 11,5 77 0 1,3 183 14 1027,3
69 La Piedad 07-05-2026 17:00 11,8 76 0 2,2 175 19 1027,7
68 La Piedad 07-05-2026 16:45 12,2 74 0 1,3 196 28 1027,2
67 La Piedad 07-05-2026 16:30 12,7 72 0 2,7 214 58 1027,3
66 La Piedad 07-05-2026 16:15 12,7 72 0 2,7 214 58 1027,3
65 La Piedad 07-05-2026 16:00 12,8 71 0 1,3 206 60 1027,4
64 La Piedad 07-05-2026 15:45 13,2 71 0 4 214 83 1027,3
63 La Piedad 07-05-2026 15:30 13,6 70 0 2,2 193 121 1027,5
62 La Piedad 07-05-2026 15:15 13,6 70 0 2,2 193 121 1027,5
61 La Piedad 07-05-2026 15:00 13,9 68 0 1,8 214 162 1027,4
60 La Piedad 07-05-2026 14:45 14,2 69 0 3,6 204 216 1027,5
59 La Piedad 07-05-2026 14:30 14,6 69 0 2,2 200 250 1027,4
58 La Piedad 07-05-2026 14:15 14,6 69 0 2,2 200 250 1027,4
57 La Piedad 07-05-2026 14:00 14,5 68 0 0,9 248 302 1027,3
56 La Piedad 07-05-2026 13:45 14,4 69 0 2,2 206 308 1027,4
55 La Piedad 07-05-2026 13:30 13,7 69 0 1,8 198 192 1027,4
54 La Piedad 07-05-2026 13:15 13,7 69 0 1,8 198 192 1027,4
53 La Piedad 07-05-2026 13:00 14,4 72 0 3,1 189 566 1027,6
52 La Piedad 07-05-2026 12:45 14,5 71 0 2,2 160 223 1027,7
51 La Piedad 07-05-2026 12:30 14,4 74 0 0,4 230 749 1027,9
50 La Piedad 07-05-2026 12:15 14,4 74 0 0,4 230 749 1027,9
49 La Piedad 07-05-2026 12:00 13,7 78 0 4 218 601 1028,2
48 La Piedad 07-05-2026 11:45 13,2 80 0 1,8 175 120 1028,2
47 La Piedad 07-05-2026 11:30 12,2 86 0 0,9 186 39 1028,6
46 La Piedad 07-05-2026 11:15 12,2 86 0 0,9 186 39 1028,6
45 La Piedad 07-05-2026 11:00 10,4 94 0 0 226 327 1028,7
44 La Piedad 07-05-2026 10:45 9,1 97 0 0,4 251 466 1028,7
43 La Piedad 07-05-2026 10:30 7,7 98 0 0 318 239 1028,8
42 La Piedad 07-05-2026 10:15 7,7 98 0 0 318 239 1028,8
41 La Piedad 07-05-2026 10:00 8,1 98 0 1,3 314 213 1028,8
40 La Piedad 07-05-2026 09:45 8,3 98 0 0 236 348 1028,3
39 La Piedad 07-05-2026 09:30 6,5 98 0 0,9 235 265 1028,1
38 La Piedad 07-05-2026 09:15 6,5 98 0 0,9 235 265 1028,1
37 La Piedad 07-05-2026 09:00 5,6 98 0 1,3 235 186 1028,1
36 La Piedad 07-05-2026 08:45 4,2 98 0 0,9 235 93 1027,9
35 La Piedad 07-05-2026 08:30 1,9 96 0 0 235 54 1027,6
34 La Piedad 07-05-2026 08:15 1,9 96 0 0 235 54 1027,6
33 La Piedad 07-05-2026 08:00 1,8 96 0 0,4 235 33 1027,4
32 La Piedad 07-05-2026 07:45 1,9 96 0 0 235 14 1027,4
31 La Piedad 07-05-2026 07:30 1,6 96 0 0 235 0 1027,2
30 La Piedad 07-05-2026 07:15 1,6 96 0 0 235 0 1027,2
29 La Piedad 07-05-2026 07:00 1,2 96 0 0 235 0 1027
28 La Piedad 07-05-2026 06:45 0,8 95 0 0 235 0 1026,9
27 La Piedad 07-05-2026 06:30 3,1 96 0 0 235 0 1026,5
26 La Piedad 07-05-2026 06:15 3,1 96 0 0 235 0 1026,5
25 La Piedad 07-05-2026 06:00 3,3 96 0 0 235 0 1026,3
24 La Piedad 07-05-2026 05:45 3 96 0 0 235 0 1026,5
23 La Piedad 07-05-2026 05:30 2,3 95 0 0 235 0 1025,9
22 La Piedad 07-05-2026 05:15 2,3 95 0 0 235 0 1025,9
21 La Piedad 07-05-2026 05:00 3 95 0 0 235 0 1025,8
20 La Piedad 07-05-2026 04:45 3,6 96 0 0 235 0 1025,6
19 La Piedad 07-05-2026 04:30 3,8 95 0 0 235 0 1025,5
18 La Piedad 07-05-2026 04:15 3,8 95 0 0 235 0 1025,5
17 La Piedad 07-05-2026 04:00 4,7 96 0 0 235 0 1025,3
16 La Piedad 07-05-2026 03:45 4,9 96 0 0 235 0 1025,2
15 La Piedad 07-05-2026 03:30 4,4 95 0 0 235 0 1024,9
14 La Piedad 07-05-2026 03:15 4,4 95 0 0 235 0 1024,9
13 La Piedad 07-05-2026 03:00 5,1 96 0 0 235 0 1024,8
12 La Piedad 07-05-2026 02:45 4,7 94 0 0 235 0 1024,6
11 La Piedad 07-05-2026 02:30 5,4 94 0 0 235 0 1024,7
10 La Piedad 07-05-2026 02:15 5,4 94 0 0 235 0 1024,7
9 La Piedad 07-05-2026 02:00 6,9 95 0 0 235 0 1024,9
8 La Piedad 07-05-2026 01:45 7,2 95 0 0,9 235 0 1024,8
7 La Piedad 07-05-2026 01:30 6,7 95 0 0 235 0 1023,9
6 La Piedad 07-05-2026 01:15 6,7 95 0 0 235 0 1023,9
5 La Piedad 07-05-2026 01:00 6,5 93 0 0 235 0 1023,9
4 La Piedad 07-05-2026 00:45 7,2 92 0 0 235 0 1023,8
3 La Piedad 07-05-2026 00:30 9 94 0 0 235 0 1023,9
2 La Piedad 07-05-2026 00:15 9 94 0 0 235 0 1023,9
1 La Piedad 07-05-2026 00:00 9,1 94 0 0 235 0 1023,7